| time (UTC) | temp F | wind direction | speed knots | gust knots | rain 1hr in | rain 24hr in | rain mn in | humidity % | barometer mb |
| 20260901143307 | 81 | 183 | 3.5 | 10.4 | 0.00 | 0.01 | 0.00 | 70 | 982.6 |
| 20260901142806 | 82 | 203 | 5.2 | 10.4 | 0.00 | 0.01 | 0.00 | 69 | 982.7 |
| 20260901142308 | 82 | 188 | 1.7 | 3.5 | 0.00 | 0.01 | 0.00 | 69 | 982.7 |
| 20260901141805 | 82 | 166 | 0.9 | 2.6 | 0.00 | 0.01 | 0.00 | 69 | 982.6 |
| 20260901140306 | 81 | 175 | 0.0 | 2.6 | 0.00 | 0.01 | 0.00 | 70 | 982.4 |
| 20260901134806 | 81 | 138 | 1.7 | 2.6 | 0.00 | 0.01 | 0.00 | 70 | 982.3 |
| 20260901134306 | 81 | 135 | 0.0 | 2.6 | 0.00 | 0.01 | 0.00 | 70 | 982.2 |
| 20260901133808 | 80 | 137 | 0.0 | 4.3 | 0.00 | 0.01 | 0.00 | 71 | 982.2 |
| 20260901133306 | 80 | 137 | 0.0 | 4.3 | 0.00 | 0.01 | 0.00 | 71 | 982.2 |
| 20260901132307 | 80 | 159 | 0.0 | 2.6 | 0.00 | 0.01 | 0.00 | 71 | 982.0 |
| 20260901131807 | 80 | 161 | 0.0 | 0.9 | 0.00 | 0.01 | 0.00 | 71 | 981.9 |
| 20260901131306 | 80 | 161 | 0.0 | 2.6 | 0.00 | 0.01 | 0.00 | 71 | 981.8 |
| 20260901130806 | 80 | 161 | 0.9 | 2.6 | 0.00 | 0.01 | 0.00 | 71 | 981.7 |
| 20260901130305 | 81 | 162 | 0.0 | 0.9 | 0.00 | 0.01 | 0.00 | 71 | 981.7 |
| 20260901125806 | 81 | 162 | 0.0 | 0.9 | 0.00 | 0.01 | 0.00 | 71 | 981.7 |
| 20260901125309 | 81 | 183 | 0.0 | 0.9 | 0.00 | 0.01 | 0.00 | 70 | 981.6 |
| 20260901124806 | 81 | 183 | 0.0 | 1.7 | 0.00 | 0.01 | 0.00 | 70 | 981.7 |
| 20260901124307 | 81 | 183 | 0.0 | 1.7 | 0.00 | 0.01 | 0.00 | 71 | 981.6 |
| 20260901123805 | 81 | 185 | 0.0 | 2.6 | 0.00 | 0.01 | 0.00 | 71 | 981.5 |
| 20260901123306 | 81 | 185 | 0.9 | 2.6 | 0.00 | 0.01 | 0.00 | 70 | 981.5 |
| 20260901122807 | 81 | 188 | 0.0 | 1.7 | 0.00 | 0.01 | 0.00 | 70 | 981.5 |
| 20260901122307 | 81 | 199 | 0.0 | 0.9 | 0.00 | 0.01 | 0.00 | 70 | 981.4 |
| 20260901120807 | 81 | 202 | 0.0 | 0.0 | 0.00 | 0.01 | 0.00 | 70 | 981.3 |
| 20260901120305 | 81 | 202 | 0.0 | 0.0 | 0.00 | 0.01 | 0.00 | 70 | 981.3 |
| 20260901115806 | 81 | 202 | 0.0 | 0.0 | 0.00 | 0.01 | 0.00 | 70 | 981.3 |
| 20260901113307 | 81 | 204 | 0.0 | 0.0 | 0.00 | 0.01 | 0.00 | 69 | 981.3 |
| 20260901112808 | 81 | 204 | 0.0 | 0.0 | 0.00 | 0.01 | 0.00 | 69 | 981.2 |
| 20260901112306 | 81 | 204 | 0.0 | 0.0 | 0.00 | 0.01 | 0.00 | 69 | 981.2 |
| 20260901111305 | 81 | 204 | 0.0 | 0.0 | 0.00 | 0.01 | 0.00 | 69 | 981.3 |
| 20260901110806 | 81 | 204 | 0.0 | 0.0 | 0.00 | 0.01 | 0.00 | 69 | 981.3 |
| 20260901110314 | 81 | 204 | 0.0 | 0.0 | 0.00 | 0.01 | 0.00 | 69 | 981.3 |
| 20260901105805 | 81 | 179 | 0.0 | 0.0 | 0.00 | 0.01 | 0.00 | 69 | 981.3 |
| 20260901105306 | 81 | 171 | 0.0 | 0.9 | 0.00 | 0.01 | 0.00 | 69 | 981.3 |
| 20260901104806 | 81 | 169 | 0.0 | 0.9 | 0.00 | 0.01 | 0.00 | 69 | 981.2 |
| 20260901104304 | 81 | 169 | 0.0 | 0.0 | 0.00 | 0.01 | 0.00 | 69 | 981.2 |
| 20260901103805 | 82 | 169 | 0.0 | 1.7 | 0.00 | 0.01 | 0.00 | 69 | 981.2 |
| 20260901103306 | 82 | 169 | 0.0 | 2.6 | 0.00 | 0.01 | 0.00 | 69 | 981.2 |
| 20260901102307 | 82 | 183 | 0.0 | 1.7 | 0.00 | 0.01 | 0.00 | 68 | 981.3 |
| 20260901101810 | 82 | 169 | 0.0 | 5.2 | 0.00 | 0.01 | 0.00 | 67 | 981.3 |
| 20260901101309 | 82 | 166 | 0.9 | 5.2 | 0.00 | 0.01 | 0.00 | 67 | 981.3 |
| 20260901100806 | 82 | 209 | 0.0 | 1.7 | 0.00 | 0.01 | 0.00 | 66 | 981.3 |
| 20260901095805 | 82 | 221 | 0.0 | 0.9 | 0.00 | 0.01 | 0.00 | 66 | 981.3 |
| 20260901093806 | 82 | 195 | 0.0 | 1.7 | 0.00 | 0.01 | 0.00 | 67 | 981.3 |
| 20260901093306 | 82 | 168 | 0.0 | 2.6 | 0.00 | 0.01 | 0.00 | 67 | 981.4 |
| 20260901092806 | 82 | 230 | 0.0 | 2.6 | 0.00 | 0.01 | 0.00 | 67 | 981.3 |
| 20260901092307 | 0 | 264 | 0.9 | 0.9 | 0.00 | 0.01 | 0.00 | 981.4 | |
| 20260901091806 | 82 | 182 | 0.0 | 0.9 | 0.00 | 0.01 | 0.00 | 67 | 981.4 |
| 20260901091307 | 82 | 182 | 0.0 | 1.7 | 0.00 | 0.01 | 0.00 | 67 | 981.4 |
| 20260901090306 | 82 | 238 | 0.0 | 2.6 | 0.00 | 0.01 | 0.00 | 67 | 981.5 |
| 20260901085806 | 82 | 213 | 0.0 | 2.6 | 0.00 | 0.01 | 0.00 | 67 | 981.4 |
| 20260901084805 | 82 | 212 | 0.0 | 0.9 | 0.00 | 0.01 | 0.00 | 67 | 981.3 |
| 20260901084305 | 82 | 241 | 0.0 | 1.7 | 0.00 | 0.01 | 0.00 | 67 | 981.4 |
| 20260901083806 | 82 | 217 | 0.0 | 3.5 | 0.00 | 0.01 | 0.00 | 67 | 981.4 |
| 20260901083305 | 82 | 221 | 0.0 | 3.5 | 0.00 | 0.01 | 0.00 | 67 | 981.4 |
| 20260901082806 | 82 | 165 | 0.9 | 2.6 | 0.00 | 0.01 | 0.00 | 67 | 981.3 |
| 20260901082306 | 82 | 203 | 0.0 | 2.6 | 0.00 | 0.01 | 0.00 | 67 | 981.3 |
| 20260901081805 | 82 | 202 | 0.0 | 3.5 | 0.00 | 0.01 | 0.00 | 66 | 981.4 |
| 20260901080805 | 82 | 171 | 0.0 | 2.6 | 0.00 | 0.01 | 0.00 | 66 | 981.2 |
| 20260901080306 | 82 | 238 | 0.0 | 1.7 | 0.00 | 0.01 | 0.00 | 66 | 981.1 |
| 20260901075806 | 82 | 207 | 0.0 | 1.7 | 0.00 | 0.01 | 0.00 | 66 | 981.1 |
| 20260901074804 | 82 | 176 | 0.0 | 4.3 | 0.00 | 0.01 | 0.00 | 67 | 981.1 |
| 20260901074305 | 82 | 209 | 0.9 | 6.1 | 0.00 | 0.01 | 0.00 | 66 | 981.2 |
| 20260901073805 | 82 | 168 | 0.9 | 6.1 | 0.00 | 0.01 | 0.00 | 65 | 981.2 |
| 20260901073305 | 82 | 186 | 1.7 | 5.2 | 0.00 | 0.01 | 0.00 | 65 | 981.3 |
| 20260901072805 | 82 | 204 | 0.9 | 3.5 | 0.00 | 0.01 | 0.00 | 66 | 981.3 |
| 20260901072309 | 82 | 197 | 0.0 | 2.6 | 0.00 | 0.01 | 0.00 | 66 | 981.4 |
| 20260901071805 | 82 | 206 | 0.0 | 1.7 | 0.00 | 0.01 | 0.00 | 68 | 981.3 |
| 20260901071305 | 82 | 197 | 0.9 | 3.5 | 0.00 | 0.01 | 0.00 | 67 | 981.4 |
| 20260901070805 | 82 | 217 | 0.9 | 3.5 | 0.00 | 0.01 | 0.00 | 66 | 981.4 |
| 20260901070307 | 82 | 223 | 1.7 | 3.5 | 0.00 | 0.01 | 0.00 | 67 | 981.3 |
| 20260901065805 | 82 | 226 | 1.7 | 3.5 | 0.00 | 0.01 | 0.01 | 68 | 981.3 |
| 20260901065306 | 81 | 186 | 1.7 | 4.3 | 0.00 | 0.01 | 0.01 | 68 | 981.2 |
| 20260901064305 | 81 | 185 | 0.9 | 5.2 | 0.00 | 0.01 | 0.01 | 67 | 981.2 |
| 20260901063806 | 81 | 179 | 1.7 | 5.2 | 0.00 | 0.01 | 0.01 | 67 | 981.2 |
| 20260901063306 | 81 | 179 | 1.7 | 5.2 | 0.00 | 0.01 | 0.01 | 67 | 981.1 |
| 20260901062806 | 81 | 192 | 2.6 | 5.2 | 0.00 | 0.01 | 0.01 | 66 | 981.1 |
| 20260901062310 | 82 | 210 | 2.6 | 6.1 | 0.00 | 0.01 | 0.01 | 65 | 981.1 |
| 20260901061306 | 83 | 209 | 1.7 | 4.3 | 0.00 | 0.01 | 0.01 | 63 | 981.3 |
| 20260901060807 | 83 | 179 | 1.7 | 4.3 | 0.00 | 0.01 | 0.01 | 62 | 981.2 |
| 20260901055306 | 83 | 172 | 1.7 | 9.6 | 0.00 | 0.01 | 0.01 | 59 | 981.3 |
| 20260901054806 | 83 | 154 | 4.3 | 9.6 | 0.00 | 0.01 | 0.01 | 59 | 981.3 |
| 20260901054305 | 83 | 157 | 3.5 | 9.6 | 0.00 | 0.01 | 0.01 | 59 | 981.4 |
| 20260901053806 | 83 | 149 | 0.9 | 9.6 | 0.00 | 0.01 | 0.01 | 59 | 981.4 |
| 20260901053306 | 82 | 155 | 1.7 | 7.8 | 0.00 | 0.01 | 0.01 | 60 | 981.5 |
| 20260901052806 | 82 | 152 | 0.0 | 7.8 | 0.00 | 0.01 | 0.01 | 62 | 981.5 |
| 20260901052307 | 81 | 140 | 3.5 | 10.4 | 0.00 | 0.01 | 0.01 | 63 | 981.7 |
| 20260901051809 | 81 | 118 | 2.6 | 14.8 | 0.00 | 0.01 | 0.01 | 64 | 981.8 |
| 20260901051309 | 81 | 116 | 7.0 | 16.5 | 0.00 | 0.01 | 0.01 | 64 | 981.7 |
| 20260901050810 | 80 | 111 | 7.8 | 16.5 | 0.00 | 0.01 | 0.01 | 65 | 981.9 |
| 20260901050317 | 80 | 123 | 10.4 | 15.6 | 0.00 | 0.01 | 0.01 | 66 | 982.0 |
| 20260901045805 | 80 | 123 | 9.6 | 20.0 | 0.00 | 0.01 | 0.01 | 67 | 982.1 |
| 20260901045306 | 80 | 109 | 13.9 | 20.0 | 0.00 | 0.01 | 0.01 | 67 | 982.3 |
| 20260901044805 | 81 | 121 | 13.9 | 19.1 | 0.00 | 0.01 | 0.01 | 66 | 982.4 |
| 20260901044305 | 81 | 127 | 7.8 | 16.5 | 0.00 | 0.01 | 0.01 | 64 | 982.3 |
| 20260901043807 | 81 | 142 | 10.4 | 16.5 | 0.00 | 0.01 | 0.01 | 64 | 982.3 |
| 20260901042806 | 81 | 134 | 7.8 | 20.0 | 0.00 | 0.01 | 0.01 | 65 | 982.4 |
| 20260901042306 | 81 | 114 | 8.7 | 20.0 | 0.00 | 0.01 | 0.01 | 65 | 982.5 |
| 20260901041805 | 81 | 124 | 11.3 | 16.5 | 0.00 | 0.01 | 0.01 | 65 | 982.5 |
| 20260901040307 | 81 | 135 | 3.5 | 14.8 | 0.00 | 0.01 | 0.01 | 64 | 982.6 |
| 20260901035811 | 81 | 118 | 10.4 | 17.4 | 0.00 | 0.01 | 0.01 | 64 | 982.4 |
| 20260901035307 | 81 | 124 | 8.7 | 17.4 | 0.00 | 0.01 | 0.01 | 64 | 982.5 |
| 20260901034306 | 81 | 133 | 10.4 | 18.2 | 0.00 | 0.01 | 0.01 | 65 | 982.4 |
| 20260901033805 | 81 | 162 | 11.3 | 18.2 | 0.00 | 0.01 | 0.01 | 66 | 982.4 |
| 20260901033305 | 80 | 117 | 6.1 | 15.6 | 0.00 | 0.01 | 0.01 | 67 | 982.3 |
| 20260901032805 | 80 | 131 | 7.0 | 15.6 | 0.00 | 0.01 | 0.01 | 68 | 982.2 |
| 20260901032307 | 80 | 123 | 11.3 | 17.4 | 0.00 | 0.01 | 0.01 | 70 | 982.1 |
| 20260901031805 | 80 | 127 | 9.6 | 17.4 | 0.00 | 0.01 | 0.01 | 70 | 981.9 |
| 20260901031307 | 80 | 118 | 12.2 | 18.2 | 0.00 | 0.01 | 0.01 | 71 | 981.9 |
| 20260901030806 | 80 | 125 | 9.6 | 18.2 | 0.00 | 0.01 | 0.01 | 71 | 981.8 |
| 20260901030305 | 80 | 128 | 11.3 | 17.4 | 0.00 | 0.01 | 0.01 | 71 | 981.7 |
| 20260901025805 | 80 | 137 | 12.2 | 19.1 | 0.00 | 0.01 | 0.01 | 69 | 981.7 |
| 20260901025306 | 81 | 113 | 10.4 | 19.1 | 0.00 | 0.01 | 0.01 | 68 | 981.6 |
| 20260901024805 | 81 | 130 | 2.6 | 12.2 | 0.00 | 0.01 | 0.01 | 68 | 981.5 |
| 20260901023306 | 81 | 138 | 7.8 | 15.6 | 0.00 | 0.01 | 0.01 | 68 | 981.2 |
| 20260901022806 | 80 | 151 | 5.2 | 15.6 | 0.00 | 0.01 | 0.01 | 69 | 981.2 |
| 20260901022306 | 80 | 130 | 1.7 | 17.4 | 0.00 | 0.01 | 0.01 | 71 | 981.1 |
| 20260901021805 | 80 | 138 | 7.8 | 17.4 | 0.00 | 0.01 | 0.01 | 70 | 981.0 |
| 20260901021306 | 80 | 111 | 7.8 | 14.8 | 0.00 | 0.01 | 0.01 | 71 | 981.1 |
| 20260901020806 | 80 | 125 | 7.0 | 14.8 | 0.00 | 0.01 | 0.01 | 71 | 980.9 |
| 20260901020305 | 81 | 123 | 6.1 | 14.8 | 0.00 | 0.01 | 0.01 | 70 | 980.8 |
| 20260901015806 | 81 | 141 | 5.2 | 13.0 | 0.00 | 0.01 | 0.01 | 70 | 980.5 |
| 20260901015306 | 80 | 159 | 2.6 | 13.9 | 0.00 | 0.01 | 0.01 | 71 | 980.4 |
| 20260901014806 | 80 | 111 | 6.1 | 18.2 | 0.00 | 0.01 | 0.01 | 71 | 980.6 |
| 20260901014305 | 81 | 175 | 7.8 | 18.2 | 0.00 | 0.01 | 0.01 | 70 | 980.7 |
| 20260901013805 | 81 | 154 | 9.6 | 15.6 | 0.00 | 0.01 | 0.01 | 70 | 980.6 |
| 20260901013307 | 81 | 117 | 5.2 | 16.5 | 0.00 | 0.01 | 0.01 | 69 | 980.5 |
| 20260901012806 | 82 | 134 | 9.6 | 16.5 | 0.00 | 0.01 | 0.01 | 68 | 980.3 |
| 20260901012306 | 82 | 155 | 3.5 | 9.6 | 0.00 | 0.01 | 0.01 | 67 | 980.1 |
| 20260901011805 | 83 | 133 | 3.5 | 10.4 | 0.00 | 0.01 | 0.01 | 67 | 980.0 |
| 20260901011306 | 83 | 124 | 5.2 | 10.4 | 0.00 | 0.01 | 0.01 | 66 | 980.0 |
| 20260901010805 | 85 | 124 | 1.7 | 7.8 | 0.00 | 0.01 | 0.01 | 64 | 979.9 |
| 20260901010305 | 85 | 175 | 0.0 | 0.0 | 0.00 | 0.01 | 0.01 | 64 | 979.9 |
| 20260901005806 | 84 | 159 | 0.0 | 0.9 | 0.00 | 0.01 | 0.01 | 65 | 980.0 |
| 20260901005307 | 83 | 111 | 0.0 | 0.9 | 0.00 | 0.01 | 0.01 | 67 | 979.9 |
| 20260901004805 | 83 | 109 | 0.0 | 0.9 | 0.00 | 0.01 | 0.01 | 68 | 979.8 |
| 20260901004305 | 83 | 107 | 0.0 | 0.0 | 0.00 | 0.01 | 0.01 | 69 | 979.6 |
| 20260901003806 | 82 | 109 | 0.0 | 0.0 | 0.00 | 0.01 | 0.01 | 70 | 979.6 |
| 20260901002306 | 80 | 106 | 0.0 | 9.6 | 0.00 | 0.01 | 0.01 | 73 | 979.6 |
| 20260901000805 | 80 | 89 | 4.3 | 11.3 | 0.00 | 0.01 | 0.01 | 71 | 980.0 |
| 20260831235805 | 80 | 86 | 3.5 | 8.7 | 0.00 | 0.01 | 0.00 | 70 | 979.8 |
| 20260831234805 | 81 | 94 | 1.7 | 8.7 | 0.00 | 0.01 | 0.00 | 72 | 979.8 |
| 20260831234305 | 81 | 82 | 0.9 | 3.5 | 0.00 | 0.01 | 0.00 | 70 | 979.9 |
| 20260831233305 | 82 | 72 | 0.9 | 3.5 | 0.00 | 0.01 | 0.00 | 72 | 980.1 |
| 20260831232807 | 82 | 49 | 0.0 | 0.9 | 0.00 | 0.01 | 0.00 | 71 | 980.0 |
| 20260831232306 | 82 | 54 | 0.0 | 0.9 | 0.00 | 0.01 | 0.00 | 70 | 980.1 |
| 20260831231805 | 82 | 38 | 0.0 | 0.9 | 0.01 | 0.01 | 0.00 | 71 | 980.0 |
| 20260831231306 | 82 | 130 | 0.0 | 0.0 | 0.01 | 0.01 | 0.00 | 71 | 979.6 |
| 20260831230306 | 82 | 128 | 0.0 | 0.0 | 0.01 | 0.01 | 0.00 | 73 | 979.5 |
| 20260831225806 | 81 | 128 | 0.0 | 0.9 | 0.01 | 0.00 | 0.01 | 74 | 979.2 |
| 20260831225306 | 81 | 128 | 0.0 | 1.7 | 0.01 | 0.00 | 0.01 | 74 | 979.4 |
| 20260831224806 | 80 | 128 | 0.0 | 1.7 | 0.01 | 0.00 | 0.01 | 74 | 979.7 |
| 20260831224306 | 80 | 125 | 0.0 | 6.1 | 0.01 | 0.00 | 0.01 | 75 | 979.9 |
| 20260831223805 | 80 | 114 | 1.7 | 6.1 | 0.01 | 0.00 | 0.01 | 79 | 979.8 |
| 20260831223305 | 80 | 128 | 0.9 | 2.6 | 0.01 | 0.00 | 0.01 | 79 | 979.6 |
| 20260831222806 | 79 | 116 | 0.0 | 7.8 | 0.01 | 0.00 | 0.01 | 80 | 979.7 |
| 20260831222306 | 79 | 114 | 0.0 | 7.8 | 0.01 | 0.00 | 0.01 | 80 | 979.8 |
| 20260831221805 | 80 | 124 | 0.0 | 6.1 | 0.00 | 0.00 | 0.00 | 81 | 980.1 |
| 20260831221306 | 80 | 110 | 1.7 | 6.1 | 0.00 | 0.00 | 0.00 | 79 | 980.4 |
| 20260831220811 | 81 | 56 | 1.7 | 5.2 | 0.00 | 0.00 | 0.00 | 73 | 980.7 |
| 20260831215306 | 83 | 137 | 0.0 | 1.7 | 0.00 | 0.00 | 0.00 | 62 | 980.6 |
| 20260831214806 | 83 | 137 | 0.0 | 1.7 | 0.00 | 0.00 | 0.00 | 62 | 980.4 |
| 20260831214307 | 84 | 171 | 0.0 | 8.7 | 0.00 | 0.00 | 0.00 | 63 | 980.3 |
| 20260831213307 | 85 | 279 | 1.7 | 18.2 | 0.00 | 0.00 | 0.00 | 71 | 980.3 |
| 20260831212805 | 87 | 327 | 6.1 | 26.1 | 0.00 | 0.00 | 0.00 | 64 | 979.8 |
| 20260831211805 | 92 | 317 | 6.1 | 16.5 | 0.00 | 0.00 | 0.00 | 52 | 979.4 |
| 20260831211307 | 97 | 268 | 7.8 | 13.9 | 0.00 | 0.00 | 0.00 | 42 | 979.3 |
| 20260831210806 | 99 | 278 | 0.0 | 2.6 | 0.00 | 0.00 | 0.00 | 42 | 979.0 |
| 20260831205807 | 99 | 257 | 0.0 | 4.3 | 0.00 | 0.00 | 0.00 | 42 | 979.1 |
| 20260831205307 | 100 | 309 | 0.0 | 5.2 | 0.00 | 0.00 | 0.00 | 42 | 979.1 |
| 20260831204805 | 100 | 309 | 1.7 | 5.2 | 0.00 | 0.00 | 0.00 | 42 | 979.2 |
| 20260831204306 | 99 | 152 | 0.0 | 0.0 | 0.00 | 0.00 | 0.00 | 43 | 979.3 |
| 20260831203807 | 98 | 152 | 0.0 | 0.9 | 0.00 | 0.00 | 0.00 | 43 | 979.4 |
| 20260831203308 | 98 | 151 | 0.0 | 2.6 | 0.00 | 0.00 | 0.00 | 44 | 979.5 |
| 20260831202306 | 98 | 69 | 0.9 | 2.6 | 0.00 | 0.00 | 0.00 | 45 | 979.7 |
| 20260831201309 | 98 | 337 | 0.0 | 0.9 | 0.00 | 0.00 | 0.00 | 45 | 979.9 |
| 20260831200308 | 97 | 316 | 0.0 | 0.0 | 0.00 | 0.00 | 0.00 | 47 | 980.3 |
| 20260831195807 | 97 | 316 | 0.0 | 0.0 | 0.00 | 0.00 | 0.00 | 46 | 980.3 |
| 20260831195307 | 96 | 316 | 0.0 | 0.9 | 0.00 | 0.00 | 0.00 | 47 | 980.4 |
| 20260831194807 | 96 | 316 | 0.0 | 0.9 | 0.00 | 0.00 | 0.00 | 48 | 980.4 |
| 20260831194307 | 96 | 266 | 0.0 | 0.9 | 0.00 | 0.00 | 0.00 | 49 | 980.5 |
| 20260831193807 | 96 | 266 | 0.0 | 0.9 | 0.00 | 0.00 | 0.00 | 49 | 980.6 |
| 20260831193307 | 95 | 265 | 0.0 | 0.0 | 0.00 | 0.00 | 0.00 | 51 | 980.7 |
| 20260831192306 | 94 | 265 | 0.9 | 2.6 | 0.00 | 0.00 | 0.00 | 51 | 980.9 |
| 20260831191806 | 94 | 250 | 0.0 | 4.3 | 0.00 | 0.00 | 0.00 | 51 | 981.1 |
| 20260831191307 | 95 | 326 | 2.6 | 4.3 | 0.00 | 0.00 | 0.00 | 51 | 981.0 |
| 20260831190806 | 95 | 313 | 0.9 | 3.5 | 0.00 | 0.00 | 0.00 | 51 | 981.1 |
| 20260831185807 | 94 | 276 | 0.0 | 0.0 | 0.00 | 0.00 | 0.00 | 52 | 981.2 |
| 20260831185306 | 94 | 278 | 0.0 | 0.0 | 0.00 | 0.00 | 0.00 | 53 | 981.2 |
| 20260831184307 | 94 | 278 | 0.0 | 0.9 | 0.00 | 0.00 | 0.00 | 54 | 981.3 |
| 20260831183306 | 94 | 305 | 0.0 | 5.2 | 0.00 | 0.00 | 0.00 | 54 | 981.3 |
| 20260831182306 | 93 | 238 | 0.0 | 1.7 | 0.00 | 0.00 | 0.00 | 55 | 981.5 |
| 20260831181303 | 93 | 159 | 0.0 | 0.9 | 0.00 | 0.00 | 0.00 | 55 | 981.6 |
| 20260831180803 | 93 | 165 | 0.0 | 0.9 | 0.00 | 0.00 | 0.00 | 55 | 981.6 |
| 20260831180303 | 93 | 241 | 0.0 | 3.5 | 0.00 | 0.00 | 0.00 | 55 | 981.6 |
| 20260831175803 | 93 | 248 | 0.0 | 3.5 | 0.00 | 0.00 | 0.00 | 55 | 981.7 |
| 20260831175306 | 93 | 234 | 0.0 | 0.0 | 0.00 | 0.00 | 0.00 | 54 | 981.6 |
| 20260831174303 | 92 | 173 | 0.0 | 3.5 | 0.00 | 0.00 | 0.00 | 56 | 981.6 |
| 20260831173803 | 93 | 199 | 0.0 | 0.9 | 0.00 | 0.00 | 0.00 | 54 | 981.7 |
| 20260831173303 | 92 | 264 | 0.0 | 0.0 | 0.00 | 0.00 | 0.00 | 55 | 981.6 |
| 20260831172802 | 92 | 264 | 0.0 | 0.0 | 0.00 | 0.00 | 0.00 | 54 | 981.7 |
| 20260831172306 | 91 | 264 | 0.0 | 0.0 | 0.00 | 0.00 | 0.00 | 55 | 981.7 |
| 20260831171804 | 91 | 264 | 0.0 | 0.9 | 0.00 | 0.00 | 0.00 | 57 | 981.8 |
| 20260831171302 | 91 | 264 | 0.0 | 0.9 | 0.00 | 0.00 | 0.00 | 60 | 981.7 |
| 20260831170803 | 91 | 262 | 0.0 | 3.5 | 0.00 | 0.00 | 0.00 | 61 | 981.7 |
| 20260831170307 | 90 | 262 | 0.0 | 3.5 | 0.00 | 0.00 | 0.00 | 62 | 981.6 |
| 20260831165803 | 90 | 155 | 0.0 | 2.6 | 0.00 | 0.00 | 0.00 | 62 | 981.5 |
| 20260831165305 | 90 | 238 | 0.0 | 0.9 | 0.00 | 0.00 | 0.00 | 64 | 981.7 |
| 20260831164303 | 89 | 283 | 0.0 | 0.0 | 0.00 | 0.00 | 0.00 | 67 | 981.8 |
| 20260831163804 | 89 | 250 | 0.0 | 0.0 | 0.00 | 0.00 | 0.00 | 68 | 981.8 |
| 20260831162802 | 88 | 250 | 0.0 | 0.0 | 0.00 | 0.00 | 0.00 | 69 | 981.9 |
| 20260831162307 | 87 | 275 | 0.0 | 1.7 | 0.00 | 0.00 | 0.00 | 70 | 981.9 |
| 20260831161807 | 87 | 295 | 0.0 | 1.7 | 0.00 | 0.00 | 0.00 | 70 | 982.0 |
| 20260831160803 | 88 | 264 | 0.0 | 0.0 | 0.00 | 0.00 | 0.00 | 71 | 982.0 |
| 20260831160303 | 88 | 282 | 0.0 | 0.9 | 0.00 | 0.00 | 0.00 | 72 | 982.0 |
| 20260831155815 | 87 | 292 | 0.0 | 1.7 | 0.00 | 0.00 | 0.00 | 73 | 982.0 |
| 20260831155317 | 87 | 288 | 0.0 | 2.6 | 0.00 | 0.00 | 0.00 | 74 | 982.0 |
| 20260831154802 | 87 | 292 | 0.0 | 8.7 | 0.00 | 0.00 | 0.00 | 74 | 982.0 |
| 20260831154303 | 86 | 298 | 0.9 | 8.7 | 0.00 | 0.00 | 0.00 | 75 | 982.1 |
| 20260831153803 | 86 | 231 | 0.9 | 4.3 | 0.00 | 0.00 | 0.00 | 75 | 982.1 |
| 20260831153315 | 86 | 259 | 0.0 | 3.5 | 0.00 | 0.00 | 0.00 | 77 | 982.1 |
| 20260831152802 | 85 | 227 | 0.0 | 4.3 | 0.00 | 0.00 | 0.00 | 77 | 982.1 |
| 20260831152306 | 85 | 262 | 0.0 | 4.3 | 0.00 | 0.00 | 0.00 | 78 | 982.1 |
| 20260831151804 | 85 | 285 | 0.9 | 4.3 | 0.00 | 0.00 | 0.00 | 78 | 982.0 |
| 20260831151304 | 85 | 300 | 0.0 | 5.2 | 0.00 | 0.00 | 0.00 | 78 | 982.1 |
| 20260831150803 | 84 | 261 | 1.7 | 5.2 | 0.00 | 0.00 | 0.00 | 79 | 982.0 |
| 20260831150303 | 85 | 265 | 0.0 | 5.2 | 0.00 | 0.00 | 0.00 | 78 | 981.8 |
| 20260831145802 | 85 | 261 | 0.0 | 2.6 | 0.00 | 0.00 | 0.00 | 79 | 981.8 |
| 20260831145306 | 85 | 274 | 0.9 | 4.3 | 0.00 | 0.00 | 0.00 | 79 | 981.7 |
| 20260831144805 | 84 | 248 | 0.9 | 4.3 | 0.00 | 0.00 | 0.00 | 80 | 981.7 |
| 20260831144303 | 84 | 275 | 0.0 | 0.9 | 0.00 | 0.00 | 0.00 | 80 | 981.7 |